sim
Sign-in with your pilot id or email,
or register
Callsign
Passwort

Schedule Details

Flight Number: OEC0270
Departure: Rio de Janeiro Galeao International Airport (SBGL) at Time
Arrival: Los Angeles International Airport (KLAX) at Time
Route: ENSOD UM409 ALGOX UZ8 RORIT UM417 MOTVI UM549 TBG UM419 ASOKU UL655 PPE J93 ASUTA J93 AMMOR

Weather Information
Getting current METAR information for SBGL 310800Z 04002KT 5000 BR NSC 16/14 Q1016
Getting current METAR information for KLAX 310753Z 26010KT 10SM SCT220 16/13 A2993 RMK AO2 SLP131 T01610133 402170156

Schedule Frequency

Route Map